Location: Amsterdam
(30.7274°N, 84.4357°W)
Time: 20:19:42
(UTC+00:00)

Altair - Pass Details

Date: 09 August 2024
Orbit: 1501 x 1682 km, 47.2° (Epoch: 07 September)

Event Time Altitude Azimuth Distance (km) Brightness Sun altitude
Rises 18:53:26 0° 260° (W) 4,882 10.4 67.9°
Reaches altitude 10° 18:56:53 10° 267° (W) 3,875 10.1 67.3°
Maximum altitude 19:06:05 42° 336° (NNW) 2,149 8.9 65.7°
Drops below altitude 10° 19:15:00 10° 45° (NE) 3,745 9.4 64.1°
Sets 19:18:17 0° 52° (NE) 4,705 9.8 63.5°
